Regional Weather Roundup
Issued by NWS

Home | Current Version | Previous Version | Graphics & Text | Print | Product List | Glossary On
Versions: 1 2 3 4 5 6 7 8 9 10 11 12 13 14 15 16 17 18 19 20 21 22 23 24 25 26 27 28 29 30 31 32 33 34 35 36 37 38 39 40 41 42 43 44 45 46 47 48 49 50
000
ASUS43 KLMK 100310
RWRKY
KENTUCKY REGIONAL WEATHER ROUNDUP
NATIONAL WEATHER SERVICE LOUISVILLE KY
1000 PM EST SAT DEC 09 2017

NOTE "FAIR" INDICATES FEW OR NO CLOUDS BELOW 12,000 FEET
WITH NO SIGNIFICANT WEATHER AND/OR OBSTRUCTIONS TO VISIBILITY.

KYZ001>023-026-027-061>063-070>075-100400-
WESTERN AND SOUTH CENTRAL KENTUCKY

CITY           SKY/WX    TMP DP  RH WIND       PRES   REMARKS
PADUCAH        CLEAR     31  17  56 NW5       30.21R WCI  26
HENDERSON      CLEAR     30  18  60 NW9       30.20R WCI  22
OWENSBORO      CLOUDY    31  19  61 NW10      30.19R WCI  22
HOPKINSVILLE   PTCLDY    31  18  57 W5        30.18R WCI  26
BOWLING GREEN  CLOUDY    34  19  54 NW8       30.18R WCI  27
GLASGOW        MOCLDY    31  18  58 NW7       30.15R WCI  24
$$

KYZ024-025-028>034-038-045-046-053-100400-
NORTH CENTRAL KENTUCKY

CITY           SKY/WX    TMP DP  RH WIND       PRES   REMARKS
LOUISVILLE/SDF CLOUDY    32  17  54 W15G23    30.12R WCI  22
LOUISVILLE/LOU MOCLDY    31  18  58 W14G24    30.11R WCI  21
FORT KNOX      CLEAR     28  16  61 W8        30.11R WCI  20
$$

KYZ035>037-039>044-047>052-055>060-089>105-100400-
NORTHEAST KENTUCKY

CITY           SKY/WX    TMP DP  RH WIND       PRES   REMARKS
LEXINGTON      CLOUDY    29  20  69 W15       30.05R WCI  18
COVINGTON      CLOUDY    29  23  78 W14       30.00R WCI  18
FRANKFORT      CLOUDY    30  17  58 W10G20    30.05R WCI  21
$$

KYZ054-064>069-076>088-106>120-100400-
SOUTHEAST KENTUCKY

CITY           SKY/WX    TMP DP  RH WIND       PRES   REMARKS
JACKSON        CLOUDY    28  24  85 VRB6      30.01R WCI  22
LONDON         CLOUDY    29  22  75 W12       30.07R WCI  19
SOMERSET       CLOUDY    30  19  64 W12G21    30.12R WCI  21
MIDDLESBORO    FLURRIES  31  23  73 W8        30.07R WCI  24
MONTICELLO     MOCLDY    30  23  75 W10       30.13R WCI  21
$$





USA.gov is the U.S. government's official web portal to all federal, state and local government web resources and services.